Location: ???? ???? ?????
(31.2680°N, 31.7283°E)
Time: 19:55:25
(UTC+00:00)

Cosmos 1538 Rocket - Pass Details

Date: 13 July 2020
Orbit: 753 x 791 km, 74.0° (Epoch: 05 August)

Event Time Altitude Azimuth Distance (km) Brightness Sun altitude
Rises 17:25:25 0° 183° (S) 3,269 7.0 -5.8°
Reaches altitude 10° 17:27:50 10° 179° (S) 2,342 6.2 -6.2°
Maximum altitude 17:33:01 54° 103° (ESE) 944 4.2 -7.2°
Drops below altitude 10° 17:38:12 10° 26° (NNE) 2,337 6.6 -8.1°
Sets 17:40:37 0° 22° (NNE) 3,262 7.4 -8.6°
